Flag for Canada Weather past 2 weeks in Regina, Saskatchewan, Canada

Now
81 °F

Partly sunny.


Feels Like: 82 °F
Forecast: N/A
Wind: 2 mph from North

Location: Regina Weather Station

Current Time: Aug 27, 2015 at 4:21:05 PM

Latest Report: Aug 27, 2015 at 3:00 PM


Visibility: 12 mi

Pressure: 29.87 "Hg (27.97 "Hg at 577m altitude)

Humidity: 54%

Dew point: 63 °F

Location of ReginaLocation

Historic Weather in Regina — Graph

°F

Regina temperature yesterday

Maximum temperature yesterday: 79 °F (at 3:00 PM)
Minimum temperature yesterday: 46 °F (at 7:00 AM)
Average temperature yesterday: 64 °F

Past Weeks' High & Low Weather Summary

 TemperatureHumidityPressure
High95 °F (Aug 12, 5:00 PM)100% (Aug 16, 3:00 AM)30.20 "Hg (Aug 16, 3:00 AM)
Low37 °F (Aug 24, 5:00 AM)30% (Aug 12, 5:00 PM)29.61 "Hg (Aug 21, 5:00 PM)
Average62 °F70%29.96 "Hg
* Reported Aug 12 2:00 PM — Aug 27 2:00 PM, Regina, Weather by CustomWeather, © 2015

Note: Actual official high and low records may vary slightly from our data, if they occured in-between our weather recording intervals... More about our weather records

Advertising

Regina weather history for previous 24 hours

 ConditionsComfort  
Time TempWeatherWind HumidityBarometerVisibility
2:00 PM
Thu, Aug 27
81 °FPartly sunny.7 mph51%29.89 "Hg15 mi
1:00 PM79 °FPartly sunny.6 mph48%29.91 "Hg12 mi
12:00 PM77 °FPartly sunny.8 mph57%29.93 "Hg13 mi
11:00 AM72 °FPartly sunny.8 mph65%29.95 "Hg12 mi
10:00 AM66 °FHigh level clouds.8 mph78%29.97 "Hg12 mi
9:00 AM61 °FHigh level clouds.9 mph88%29.99 "Hg12 mi
8:00 AM55 °FPartly sunny.8 mph94%30.01 "Hg12 mi
7:00 AM54 °FPassing clouds.8 mph94%30.02 "Hg12 mi
6:00 AM52 °FFog.8 mph94%30.03 "Hg12 mi
5:00 AM52 °FFog.6 mph94%30.03 "Hg15 mi
4:00 AM54 °FClear.3 mph94%30.01 "Hg15 mi
3:00 AM54 °FClear.6 mph94%30.01 "Hg15 mi
2:00 AM57 °FClear.8 mph88%30.02 "Hg15 mi
1:00 AM59 °FPassing clouds.8 mph88%30.03 "Hg15 mi
12:00 AM61 °FPassing clouds.9 mph83%30.03 "Hg12 mi
11:00 PM
Wed, Aug 26
63 °FPassing clouds.6 mph77%30.06 "Hg12 mi
10:00 PM66 °FPassing clouds.6 mph68%30.06 "Hg12 mi
9:00 PM68 °FPartly cloudy.8 mph69%30.06 "Hg12 mi
8:00 PM68 °FOvercast.8 mph64%30.07 "Hg10 mi
7:00 PM72 °FCloudy.6 mph61%30.06 "Hg10 mi
6:00 PM73 °FMostly cloudy.9 mph57%30.07 "Hg10 mi
5:00 PM77 °FHigh level clouds.9 mph51%30.07 "Hg15 mi
4:00 PM77 °FPartly sunny.10 mph51%30.05 "Hg15 mi
Weather by CustomWeather, © 2015

See weather overviewHow to use our weather pages